Starlink 1612

operational
NORAD ID: 46164 Int'l Des: 2020-057 Owner: SPXS Country: US Constellation: starlink
LEOCIRCULAR

Starlink 1612について

説明を読み込み中...

リアルタイム位置

3D地球を読み込み中...

次回通過

高度履歴

Altitude vs Time

uPlot chart will show altitude changes over time

軌道要素

1 46164U 20057AZ 25306.58335647 .00072564 00000-0 18585-2 0 9995
2 46164 53.0467 108.6414 0012537 149.0324 230.6848 15.38682041 5872
Epoch: Nov 2, 2025 • Age: 34 hours

現在のステータス

高度 472.5 km
速度 7.63 km/s
衛星直下点 -51.42°S, 9.3°W
打ち上げ日 Aug 18, 2020
運用期間 5.2 years
タイプ internet

技術仕様

分類 Payload
質量 260.00 kg
乾燥質量 248.00 kg
総質量 260.00 kg
長さ 0.20 m
直径 2.80 m
スパン 9.00 m
形状 Box + pan
製造者 SPXS
バスタイプ Starlink
フェーズステータス In Orbit
所有者/国 SPXS/US

大規模コンステレーション

Loading constellations...